Temperature
14 14 15 15 16 16 18 20 22 22 22 22 23 23 22 20 20 18 16 16 16 16 16 16 16 16 16 16 16 16 16 16 16 16 16 15 15 15 15 15 15 15 15 15 15 15 15 15 15
14 14 15 16 16 16 18 20 21 21 22 21 22 22 22 19 17 16 16 15 15 16 16 16 16 16 16 16 16 16 16 16 16 16 15 15 15 15 15 15 15 15 15 15 15 15 15 15 15
13 14 15 16 16 17 19 20 20 20 21 20 21 20 20 18 16 15 15 15 15 15 16 16 16 16 16 16 16 16 16 16 15 15 15 15 15 15 15 15 15 15 15 15 15 15 15 15 15
13 14 15 15 16 18 19 20 20 20 20 20 20 18 17 16 16 15 15 15 15 15 15 15 15 16 16 16 16 15 15 15 15 15 15 15 15 15 15 15 15 15 15 15 15 15 15 15 15
13 14 14 15 16 18 19 20 20 19 19 19 19 18 16 15 15 15 15 15 14 14 15 15 15 15 15 15 15 15 15 15 15 15 15 15 15 15 15 15 15 15 15 15 15 15 15 15 15
13 14 14 14 16 18 19 19 19 19 19 19 19 17 15 14 14 14 14 14 14 14 15 15 15 15 15 15 15 15 15 15 15 15 15 15 15 15 15 15 15 15 15 15 15 15 15 14 14
13 13 14 15 16 17 18 18 18 18 18 18 18 16 14 14 14 14 14 14 14 14 14 15 15 15 15 15 15 15 15 15 15 15 15 15 14 14 15 14 15 15 15 15 15 15 14 14 14
12 13 14 14 15 16 17 17 18 17 17 18 18 16 14 13 13 13 13 13 14 14 14 14 14 14 14 14 15 15 15 15 15 15 14 14 14 14 14 14 14 14 15 15 14 14 14 14 14
12 12 12 14 15 15 16 16 16 16 16 16 16 15 14 14 13 13 13 13 13 13 13 13 14 14 14 14 14 14 14 14 14 14 14 14 14 14 14 14 14 14 14 14 14 14 14 14 13
12 11 13 14 15 15 15 15 14 15 15 15 14 14 13 13 13 13 13 13 13 13 13 13 13 14 14 14 14 14 14 14 14 14 14 14 14 14 14 14 14 14 14 14 14 13 13 13 13
12 12 13 14 14 14 14 14 14 14 14 15 14 13 12 12 12 12 12 12 12 12 13 13 13 13 13 13 13 13 14 14 14 14 14 13 13 13 13 13 13 13 13 13 13 13 13 13 12
12 13 13 13 13 13 13 13 13 14 14 14 14 13 12 12 12 12 12 12 12 12 12 13 13 13 13 13 13 13 13 13 13 13 13 13 13 13 13 13 13 13 13 13 13 13 12 12 12
12 12 13 12 12 12 13 13 13 13 13 14 14 13 12 11 11 12 12 12 12 12 12 12 12 12 12 13 13 13 13 13 13 13 13 13 13 13 12 12 12 12 12 12 12 12 12 12 12
13 12 12 12 12 12 13 13 12 13 13 13 13 12 12 11 11 11 11 11 11 12 12 12 12 12 12 12 12 12 12 12 12 12 12 12 12 12 12 12 12 12 12 12 12 12 12 12 11
12 12 12 12 13 13 12 12 12 13 13 13 12 12 12 11 11 11 11 11 11 12 12 12 12 12 12 12 12 12 12 12 12 12 12 12 12 12 12 12 12 12 12 12 12 11 11 11 11
12 12 11 12 13 12 12 11 13 13 13 12 12 12 12 12 11 11 11 11 11 11 11 11 12 11 11 11 11 11 11 11 11 12 12 12 12 12 11 12 12 11 11 11 11 11 11 11 11
11 11 11 12 13 13 12 11 13 13 13 13 12 12 12 11 11 11 11 11 11 11 11 11 11 11 11 11 11 11 11 11 11 11 11 11 11 11 11 11 11 11 11 11 11 11 11 11 11
10 11 12 12 12 12 12 12 12 13 13 13 12 12 12 11 11 11 10 10 10 11 11 11 11 11 11 11 11 11 11 11 11 11 11 11 11 11 11 11 11 11 11 11 11 10 10 10 10
11 12 12 12 13 12 12 12 12 12 12 12 12 12 11 11 11 10 10 10 10 10 10 10 11 11 10 10 10 10 10 10 10 10 11 11 11 11 11 11 11 11 10 10 10 10 10 10 10
12 11 11 12 12 12 11 12 12 12 12 13 12 12 11 11 10 10 10 10 10 10 10 10 10 10 10 10 10 10 10 10 10 10 10 10 10 10 10 10 10 10 10 10 10 10 10 10 9
12 11 11 11 11 12 11 11 12 12 13 13 12 12 12 11 10 10 10 9 9 10 10 10 10 10 10 10 10 10 10 10 10 10 10 10 10 10 10 10 10 10 10 10 10 9 9 9 9
11 11 11 11 10 10 11 10 12 12 12 12 12 12 11 11 10 10 9 9 9 9 10 10 10 10 10 10 10 9 9 9 9 10 10 10 10 10 10 9 9 9 9 9 9 9 9 9 9
10 11 11 11 10 10 11 10 11 13 12 11 12 12 11 11 10 10 10 9 9 9 9 9 9 9 9 9 9 9 9 9 9 9 9 9 9 9 9 9 9 9 9 9 9 9 8 8 8
11 11 11 11 10 10 11 10 11 12 12 12 12 12 11 11 10 10 10 9 9 9 9 9 9 9 9 9 9 9 9 9 9 9 9 9 9 9 9 9 9 9 8 8 8 8 8 8 8
11 10 10 10 10 10 11 11 11 13 13 12 12 12 11 11 10 10 9 9 9 9 9 9 9 9 9 9 9 9 9 9 9 8 8 8 8 8 8 8 8 8 8 8 8 8 8 7 7
10 11 9 9 10 10 10 10 11 12 12 12 12 12 11 11 10 10 9 9 9 9 9 9 9 9 9 8 9 8 8 8 8 8 8 8 8 8 8 8 8 8 8 8 7 7 7 7 7
10 10 11 9 10 10 11 12 12 12 11 11 12 11 11 11 10 10 9 9 9 9 9 9 9 9 9 8 8 8 8 8 8 8 8 8 8 8 8 8 8 7 7 7 7 7 7 6 6
10 10 9 9 9 10 12 12 11 11 11 11 11 11 11 11 10 10 9 9 9 9 9 9 8 8 8 8 8 8 8 8 8 8 8 8 8 7 7 7 7 7 7 7 7 6 6 6 6
10 10 10 10 10 10 10 11 12 12 11 11 11 11 11 11 10 10 9 9 9 9 9 9 8 8 8 8 8 8 8 8 8 7 7 7 7 7 7 7 7 7 7 6 6 6 6 6 5
10 11 10 9 9 10 9 10 12 12 12 11 11 11 11 10 10 9 9 9 9 8 8 8 8 8 8 8 8 8 8 7 7 7 7 7 7 7 6 6 6 6 6 6 6 6 5 5 5
Wind_Speed
15 13 7 3 4 6 11 9 6 4 3 3 4 3 3 4 3 6 5 7 12 12 12 12 12 12 12 11 11 11 10 10 9 9 9 8 8 8 7 7 7 7 8 8 8 8 8 8 8
13 9 5 4 5 9 9 8 7 5 1 2 4 3 3 4 6 7 5 7 11 11 12 11 12 12 12 11 11 11 11 10 9 9 8 8 8 7 7 7 7 7 7 8 7 8 8 7 7
10 8 4 4 6 10 7 3 3 2 1 2 2 4 4 4 5 4 5 7 10 11 12 12 12 13 12 12 12 11 11 10 10 9 9 8 8 8 7 7 7 7 7 7 7 7 6 6 6
5 3 4 6 12 10 7 4 2 0 1 2 2 2 3 6 3 6 6 7 9 10 12 12 12 13 12 11 11 11 11 10 10 9 8 8 8 7 8 7 7 7 7 7 7 6 6 6 5
3 3 5 8 13 9 6 5 2 2 2 2 1 1 2 4 8 8 6 7 8 9 11 12 12 12 12 11 11 11 10 10 9 9 8 8 7 8 8 8 7 7 7 7 6 6 6 5 5
3 3 5 10 11 9 7 5 4 3 3 3 2 2 2 5 6 5 5 6 8 9 10 11 11 11 11 11 11 10 10 10 9 8 8 8 8 8 8 8 7 7 6 6 5 5 5 5 4
3 4 8 10 9 8 6 4 4 3 3 3 2 2 3 5 5 4 5 6 7 9 9 9 10 11 11 11 10 10 9 9 8 8 7 7 8 8 7 7 7 6 6 5 5 4 4 4 3
3 4 7 9 9 6 3 4 4 3 4 2 1 3 4 5 4 5 5 6 7 7 6 7 9 9 10 10 10 9 9 8 8 8 7 6 6 7 7 6 5 5 5 4 4 3 3 2 2
3 4 6 6 6 4 4 5 4 4 2 2 3 3 5 10 6 5 5 5 5 6 5 5 5 6 8 9 9 9 8 7 7 7 5 4 4 5 5 5 4 3 3 3 2 2 2 2 2
3 4 7 5 5 5 5 5 5 3 2 1 3 6 8 8 7 6 5 5 5 5 4 4 4 5 5 5 7 7 7 5 4 4 4 4 4 3 3 4 3 1 1 2 2 3 2 2 2
3 5 6 7 6 5 4 4 4 3 4 3 3 5 5 6 7 6 5 6 6 5 5 5 4 5 4 3 4 4 5 4 5 4 3 3 4 3 4 3 2 1 2 2 3 3 2 2 1
5 6 6 6 6 5 5 4 4 5 5 4 3 8 6 5 6 6 5 6 6 6 5 5 5 5 4 4 4 4 4 4 4 4 4 4 3 3 3 3 3 3 3 3 4 3 3 3 3
7 6 6 5 5 5 5 5 5 7 5 4 4 8 7 5 5 5 5 6 6 6 5 5 5 5 4 3 2 4 4 4 5 4 4 4 3 2 3 3 3 4 4 3 4 3 3 2 3
4 5 6 5 5 5 5 6 5 7 3 2 5 6 7 5 5 5 6 6 6 6 5 5 5 5 4 3 2 3 5 4 6 6 6 5 4 3 3 3 3 3 4 4 4 4 3 2 2
5 5 6 5 5 4 4 6 7 6 4 3 5 6 7 6 5 6 6 6 6 6 5 5 5 4 4 3 3 4 4 4 4 5 6 6 6 4 4 2 2 3 4 5 4 4 3 2 2
5 5 4 4 4 4 4 6 5 4 5 4 4 5 6 5 5 6 6 6 6 6 6 5 4 4 4 4 3 3 4 4 4 4 5 6 6 5 4 2 2 4 5 4 2 2 3 3 3
3 3 4 3 4 4 5 6 4 3 6 5 5 6 6 5 5 5 5 6 6 6 6 5 4 4 5 4 3 4 4 4 4 5 5 5 5 5 5 3 3 5 4 3 3 3 2 2 3
3 5 5 4 3 4 6 7 4 4 5 5 5 6 6 6 6 6 6 5 6 5 6 5 5 5 4 3 3 3 3 2 3 4 5 5 5 5 4 3 4 4 2 2 3 3 3 2 2
7 7 6 4 1 3 7 7 6 4 4 5 5 6 6 6 6 6 6 6 5 5 5 5 5 4 3 2 2 2 1 2 2 3 4 4 4 3 3 2 2 3 2 2 2 2 2 2 2
8 6 5 3 3 4 6 8 6 5 6 6 6 6 6 6 7 7 7 6 5 5 5 5 5 4 4 2 2 2 2 2 2 2 3 3 3 3 2 2 1 1 1 2 2 2 2 1 2
5 4 4 4 5 4 5 5 6 5 6 5 5 6 6 7 7 8 7 6 6 5 5 5 4 4 4 3 3 3 2 1 1 1 1 1 2 2 2 2 2 1 1 1 2 2 2 1 1
4 3 5 5 3 3 3 3 5 6 7 7 6 6 6 6 7 7 7 6 6 5 5 5 4 4 3 3 3 3 2 2 2 2 2 1 2 2 2 1 1 1 1 1 1 2 1 1 1
3 6 6 5 4 3 2 3 4 6 7 8 8 7 7 7 7 8 7 6 6 5 5 5 5 4 4 3 3 3 2 1 2 2 2 2 1 2 2 1 0 0 0 1 1 1 1 1 1
5 6 6 4 2 3 3 3 4 4 6 6 7 7 7 7 7 7 7 7 6 5 5 5 5 4 4 4 3 3 2 2 2 2 2 1 1 2 2 2 1 1 1 1 0 1 1 1 1
4 3 2 1 1 3 1 2 5 1 3 5 7 7 7 7 7 7 8 8 7 7 6 5 6 5 5 5 4 4 3 3 3 2 2 2 1 2 3 2 2 2 2 2 2 1 2 2 2
5 3 2 2 3 2 1 4 3 3 3 3 4 6 7 7 7 7 7 7 7 7 7 6 6 5 5 5 4 4 4 2 2 2 2 2 2 2 2 2 3 3 3 3 2 2 3 3 3
4 2 1 2 5 3 4 3 2 4 4 3 4 5 6 7 7 7 7 7 7 7 7 7 6 5 5 5 4 4 4 3 3 3 2 2 2 2 2 3 3 3 3 3 3 3 4 3 3
3 4 2 1 3 4 4 3 2 4 4 4 4 5 5 6 6 6 6 6 7 7 6 6 6 6 5 5 4 3 4 4 4 3 3 3 3 2 2 3 4 4 4 4 4 3 4 4 4
2 2 2 3 3 2 3 3 2 3 4 4 4 4 5 5 6 6 5 5 6 6 6 5 5 5 4 4 4 4 4 4 3 3 3 3 3 3 3 3 4 4 4 4 4 5 4 4 4
2 3 2 2 4 3 3 4 2 5 4 3 3 4 4 5 5 5 5 5 5 5 5 5 4 4 4 3 3 3 4 3 3 3 3 3 2 2 3 3 3 4 4 3 4 4 4 4 5
Wind_Direction
308 287 268 259 239 232 239 241 253 259 270 315 355 348 347 0 28 116 134 100 109 117 119 120 124 123 122 121 120 116 113 110 106 102 97 94 93 88 86 83 78 77 74 72 69 68 67 64 60
304 297 273 241 235 234 238 231 237 256 278 355 357 346 27 65 68 99 108 100 112 114 116 117 119 120 120 119 119 116 113 109 105 102 98 92 89 91 89 85 78 76 75 73 70 67 66 63 60
285 283 263 235 232 236 245 228 212 244 37 60 22 3 18 66 85 95 106 106 107 107 109 114 116 119 118 120 119 116 112 108 104 100 96 90 85 83 82 81 75 74 73 72 69 65 62 59 56
288 257 246 245 243 245 266 285 19 277 204 110 102 60 48 42 62 93 101 101 105 107 106 112 114 118 117 118 119 118 114 111 107 102 96 91 87 81 77 77 74 73 73 70 69 65 60 54 50
262 255 235 239 248 257 266 276 304 264 204 192 172 113 70 53 75 91 96 102 108 110 109 115 114 118 118 115 117 119 116 113 108 105 100 97 91 83 77 73 72 73 72 68 66 63 58 53 46
260 244 238 239 247 251 260 279 263 248 230 209 204 128 107 105 90 91 87 96 104 108 109 117 115 116 117 113 111 116 118 115 110 109 105 98 92 86 78 72 70 69 68 64 60 54 48 44 37
277 262 251 258 258 250 249 274 278 277 251 219 199 129 140 118 95 86 80 83 97 106 113 119 117 116 118 113 113 112 118 120 117 113 110 105 98 92 84 76 69 66 64 62 55 47 39 32 21
292 283 254 253 264 264 285 280 276 294 288 300 205 158 157 135 108 91 82 84 92 99 108 123 126 126 127 120 119 117 118 126 127 123 120 122 120 108 95 83 73 65 58 57 50 41 31 11 339
283 255 256 259 268 289 323 316 322 334 314 312 14 21 130 129 122 109 100 94 100 101 99 102 108 112 122 131 138 134 130 137 145 136 131 129 114 106 107 99 88 73 54 42 34 14 346 315 297
236 248 258 285 301 309 317 322 316 321 289 297 50 62 105 125 133 141 143 134 127 120 115 102 97 97 109 132 147 145 131 128 127 112 108 104 96 94 101 130 120 98 47 12 334 321 298 282 282
232 257 285 297 313 311 300 308 295 272 260 243 155 133 136 151 153 159 155 144 136 131 121 104 97 94 91 92 108 100 102 104 88 74 75 91 82 70 83 98 86 40 46 13 334 313 315 339 11
249 268 283 294 316 312 290 295 289 270 275 304 166 152 157 168 166 163 151 138 129 124 117 104 100 95 84 87 95 100 89 74 76 71 55 66 65 44 52 66 41 34 26 3 343 325 336 349 14
248 263 275 284 292 290 283 275 279 274 287 317 134 147 163 182 170 154 137 128 125 122 116 111 106 103 92 78 80 88 82 77 83 66 53 54 62 57 43 57 46 38 16 358 336 343 346 2 11
264 274 273 278 276 273 265 265 260 264 255 178 154 161 169 179 162 145 139 132 127 124 119 113 110 110 107 95 85 83 87 81 80 67 55 49 52 45 49 57 45 26 7 354 349 0 5 10 20
266 258 260 244 247 245 258 258 240 245 230 198 180 174 168 167 154 146 142 136 132 129 123 118 114 112 108 100 92 93 93 89 83 80 67 54 48 39 52 63 51 14 3 4 8 5 12 10 19
242 243 251 230 217 222 228 256 248 213 192 201 191 175 164 155 146 135 132 132 130 128 123 120 123 116 104 98 87 90 89 84 80 82 75 58 49 37 46 57 45 16 12 11 5 13 11 13 20
233 257 261 257 209 211 223 254 246 202 184 196 183 169 158 148 142 130 127 126 125 126 125 120 112 113 103 97 91 85 83 78 78 77 73 59 49 40 49 46 35 24 19 14 4 18 19 17 9
270 268 264 259 223 226 235 250 236 219 200 195 179 164 161 157 151 135 124 116 116 116 120 121 117 111 108 110 106 96 84 74 76 77 73 61 52 41 42 47 40 25 36 20 13 7 11 14 345
277 270 276 283 272 248 244 252 245 225 213 202 181 166 161 157 149 140 130 121 117 118 122 125 122 120 120 122 126 123 121 107 86 82 74 66 59 49 45 37 40 35 41 22 20 8 4 7 3
275 277 284 310 319 273 258 256 241 213 207 200 178 169 163 154 149 147 139 133 136 135 134 129 129 133 133 131 119 109 107 100 105 95 82 74 68 62 58 47 55 56 43 28 26 14 3 354 26
282 281 292 299 309 264 266 258 218 192 186 179 176 169 164 161 159 155 149 147 146 147 149 138 135 133 133 133 116 105 96 99 107 115 110 92 86 98 71 42 43 52 69 64 29 19 27 341 337
291 326 310 296 298 269 229 273 234 186 178 183 181 170 164 163 159 156 155 153 152 152 146 134 142 139 139 133 136 151 158 166 173 154 149 131 123 117 104 69 30 33 73 65 22 37 356 4 308
290 304 286 268 268 292 266 249 255 171 181 191 181 171 166 163 160 158 159 156 150 147 146 146 151 146 143 145 155 159 154 153 134 130 143 155 153 148 158 167 195 235 97 88 43 11 336 331 284
279 281 265 240 240 270 236 220 270 194 188 177 172 172 167 159 158 154 151 147 145 147 150 156 157 154 154 162 166 165 166 161 147 156 167 184 175 184 181 191 206 205 186 173 206 253 279 281 292
298 319 345 329 245 258 199 215 253 170 140 160 171 175 167 157 155 154 156 159 156 158 160 165 166 167 168 173 180 181 185 182 188 195 192 195 192 199 198 192 209 204 211 219 219 237 261 262 260
299 336 15 306 290 296 241 230 245 106 89 108 147 159 159 157 158 160 161 159 161 166 168 173 175 173 173 181 188 185 183 185 205 204 195 206 207 202 187 194 216 221 218 224 220 230 243 239 243
319 340 332 302 294 278 244 217 145 116 113 123 146 156 165 164 162 163 163 161 163 167 174 179 178 175 178 185 182 184 185 190 202 209 203 208 212 204 187 204 220 230 223 221 221 228 239 237 236
288 319 329 311 321 303 277 237 211 176 171 161 161 167 169 160 157 159 163 165 165 166 172 175 175 175 177 179 179 183 188 193 196 199 211 212 214 208 206 217 222 227 224 221 222 235 238 239 241
215 250 263 271 260 280 299 296 42 115 146 159 167 159 158 159 162 165 166 165 161 160 165 171 171 164 167 174 175 181 190 188 187 195 210 213 216 213 216 221 224 228 228 223 223 231 232 235 244
301 284 275 272 290 269 270 278 49 77 87 126 144 147 148 148 153 160 164 160 157 157 158 161 162 159 164 166 168 179 175 177 188 203 209 203 214 219 219 223 227 233 231 228 227 238 233 227 234
Height
1507 1508 1510 1512 1513 1511 1504 1494 1488 1488 1488 1490 1490 1491 1492 1497 1500 1510 1511 1510 1510 1511 1514 1517 1519 1521 1523 1525 1527 1528 1529 1530 1531 1532 1533 1533 1534 1535 1535 1535 1536 1536 1537 1537 1537 1537 1537 1537 1537
1506 1508 1511 1511 1511 1510 1499 1491 1490 1489 1489 1491 1491 1492 1494 1499 1502 1505 1508 1510 1511 1512 1514 1516 1519 1521 1523 1525 1526 1528 1529 1530 1531 1532 1533 1534 1534 1535 1535 1536 1536 1536 1537 1537 1537 1537 1537 1537 1537
1507 1508 1510 1507 1504 1502 1495 1488 1489 1489 1490 1492 1494 1495 1498 1502 1504 1506 1508 1509 1511 1512 1514 1517 1519 1521 1523 1524 1526 1528 1529 1530 1532 1532 1533 1534 1534 1535 1535 1536 1536 1537 1537 1537 1537 1537 1537 1537 1537
1508 1509 1509 1506 1500 1493 1491 1488 1488 1489 1491 1492 1495 1498 1501 1504 1504 1506 1507 1509 1510 1511 1514 1516 1519 1521 1522 1524 1526 1528 1529 1530 1531 1532 1533 1534 1534 1535 1535 1536 1536 1537 1537 1537 1537 1537 1537 1537 1537
1508 1508 1507 1504 1498 1492 1489 1489 1489 1490 1491 1493 1495 1499 1502 1505 1504 1506 1508 1509 1510 1511 1513 1516 1518 1520 1522 1524 1526 1527 1529 1530 1531 1532 1533 1534 1534 1535 1535 1536 1536 1537 1537 1537 1537 1537 1537 1537 1537
1509 1506 1506 1503 1496 1492 1490 1490 1490 1490 1491 1493 1496 1499 1503 1504 1505 1506 1508 1509 1510 1511 1513 1515 1518 1520 1522 1524 1525 1527 1528 1530 1531 1532 1533 1534 1534 1535 1535 1536 1536 1536 1536 1537 1537 1537 1537 1537 1537
1509 1505 1503 1499 1495 1492 1490 1491 1491 1491 1491 1493 1495 1499 1502 1503 1504 1506 1508 1509 1510 1511 1513 1515 1517 1519 1521 1523 1525 1527 1528 1529 1531 1532 1533 1533 1534 1534 1535 1535 1536 1536 1536 1536 1536 1536 1536 1537 1537
1507 1506 1501 1498 1496 1493 1491 1491 1491 1492 1492 1493 1495 1497 1500 1502 1503 1505 1507 1508 1509 1511 1513 1515 1517 1519 1521 1523 1525 1526 1528 1529 1530 1531 1532 1533 1534 1534 1535 1535 1535 1536 1536 1536 1536 1536 1536 1536 1536
1507 1509 1503 1498 1496 1494 1493 1493 1492 1492 1493 1494 1495 1496 1497 1500 1502 1504 1506 1507 1509 1511 1512 1514 1516 1518 1520 1522 1524 1525 1527 1528 1529 1531 1532 1532 1533 1533 1534 1534 1535 1535 1535 1535 1535 1535 1535 1536 1536
1506 1507 1501 1497 1496 1495 1495 1495 1494 1493 1493 1494 1495 1496 1497 1499 1500 1502 1504 1505 1508 1509 1511 1513 1515 1517 1519 1521 1523 1524 1526 1527 1529 1530 1531 1532 1532 1533 1533 1534 1534 1534 1534 1534 1535 1535 1535 1535 1535
1504 1503 1499 1498 1497 1496 1496 1495 1495 1495 1494 1494 1495 1496 1498 1499 1500 1501 1503 1505 1507 1509 1511 1512 1514 1516 1518 1519 1521 1523 1525 1526 1528 1529 1530 1531 1531 1532 1532 1533 1533 1533 1534 1534 1534 1534 1534 1535 1535
1502 1500 1499 1499 1497 1497 1496 1495 1495 1494 1494 1493 1494 1494 1496 1498 1499 1500 1502 1504 1506 1508 1510 1511 1513 1515 1517 1518 1520 1522 1523 1525 1526 1528 1528 1529 1530 1531 1531 1532 1532 1533 1533 1533 1533 1534 1534 1534 1534
1501 1499 1499 1498 1497 1496 1496 1495 1496 1494 1493 1492 1492 1494 1495 1497 1498 1500 1502 1503 1505 1507 1509 1511 1513 1514 1516 1517 1519 1520 1522 1524 1525 1526 1527 1528 1529 1529 1530 1531 1531 1532 1532 1532 1532 1533 1533 1533 1533
1499 1498 1498 1497 1496 1496 1496 1495 1496 1492 1492 1492 1493 1494 1495 1497 1498 1499 1501 1503 1504 1506 1508 1510 1511 1513 1515 1516 1517 1519 1521 1522 1524 1525 1526 1527 1528 1528 1529 1530 1530 1531 1531 1531 1531 1532 1532 1532 1532
1498 1498 1497 1495 1495 1495 1496 1494 1492 1490 1491 1491 1492 1494 1495 1496 1498 1499 1500 1502 1503 1505 1507 1509 1510 1512 1514 1515 1517 1518 1519 1521 1522 1523 1524 1525 1526 1527 1528 1529 1529 1529 1530 1530 1530 1530 1531 1531 1531
1497 1497 1498 1493 1492 1493 1497 1495 1488 1488 1489 1490 1491 1493 1494 1496 1497 1499 1500 1501 1503 1504 1506 1508 1509 1511 1512 1514 1516 1517 1518 1519 1521 1522 1522 1523 1524 1525 1527 1527 1528 1528 1529 1529 1529 1529 1529 1529 1529
1497 1499 1496 1492 1490 1490 1493 1492 1487 1486 1487 1489 1490 1492 1494 1495 1497 1498 1499 1500 1502 1504 1505 1507 1508 1510 1511 1512 1514 1515 1516 1517 1519 1520 1521 1522 1523 1524 1525 1526 1526 1527 1527 1528 1528 1528 1528 1527 1527
1500 1497 1493 1492 1489 1489 1490 1488 1485 1485 1486 1487 1488 1490 1492 1494 1496 1497 1498 1500 1501 1503 1504 1506 1507 1509 1510 1512 1513 1514 1514 1516 1517 1518 1519 1520 1521 1522 1524 1524 1525 1526 1526 1526 1526 1526 1526 1526 1526
1495 1494 1492 1489 1487 1489 1488 1486 1484 1483 1484 1485 1486 1488 1491 1493 1495 1496 1497 1499 1500 1502 1504 1505 1506 1508 1509 1510 1511 1513 1513 1515 1516 1517 1517 1519 1520 1521 1522 1523 1524 1524 1524 1525 1525 1525 1525 1525 1524
1493 1493 1492 1489 1486 1487 1487 1484 1481 1481 1481 1483 1484 1487 1489 1492 1493 1495 1496 1497 1499 1500 1502 1504 1505 1507 1508 1510 1511 1512 1513 1514 1515 1516 1517 1517 1519 1520 1520 1521 1522 1522 1523 1523 1523 1524 1523 1523 1523
1492 1493 1492 1492 1488 1485 1487 1484 1480 1478 1480 1481 1483 1485 1488 1490 1492 1493 1494 1496 1498 1499 1501 1502 1504 1506 1507 1509 1510 1511 1512 1513 1514 1515 1516 1516 1517 1518 1519 1519 1520 1521 1521 1521 1522 1522 1522 1522 1522
1494 1491 1490 1490 1493 1493 1488 1494 1479 1476 1478 1480 1482 1484 1486 1488 1490 1491 1493 1495 1496 1498 1500 1501 1503 1505 1506 1507 1509 1510 1511 1512 1513 1514 1514 1515 1515 1515 1517 1518 1518 1519 1519 1519 1520 1520 1520 1520 1520
1494 1490 1489 1489 1491 1492 1487 1491 1482 1473 1477 1478 1479 1482 1484 1486 1488 1490 1492 1493 1495 1497 1499 1500 1502 1503 1504 1506 1507 1508 1509 1511 1511 1512 1512 1513 1513 1514 1515 1516 1516 1517 1517 1517 1517 1518 1518 1518 1518
1492 1490 1486 1487 1491 1496 1487 1490 1484 1475 1472 1474 1477 1479 1482 1484 1486 1488 1490 1492 1494 1496 1497 1499 1500 1501 1503 1504 1505 1507 1508 1509 1510 1510 1511 1511 1511 1512 1513 1513 1514 1514 1515 1515 1515 1515 1516 1515 1515
1493 1495 1498 1496 1496 1492 1484 1486 1483 1469 1468 1470 1473 1477 1479 1482 1484 1486 1488 1490 1492 1493 1495 1497 1498 1500 1501 1502 1504 1505 1506 1507 1508 1508 1509 1509 1510 1510 1510 1511 1512 1512 1512 1512 1512 1512 1512 1512 1512
1494 1495 1504 1506 1500 1492 1486 1486 1476 1469 1469 1469 1472 1475 1478 1480 1483 1485 1486 1488 1490 1491 1493 1495 1496 1498 1499 1500 1502 1503 1504 1504 1505 1506 1507 1507 1507 1507 1508 1508 1509 1509 1509 1509 1509 1509 1509 1509 1509
1496 1497 1495 1501 1494 1493 1485 1475 1471 1470 1470 1471 1472 1474 1477 1479 1481 1483 1485 1487 1488 1489 1491 1493 1494 1495 1497 1498 1499 1500 1501 1502 1503 1503 1504 1504 1504 1504 1505 1505 1505 1506 1506 1506 1505 1505 1505 1505 1505
1498 1496 1499 1502 1501 1497 1483 1476 1477 1473 1472 1472 1473 1474 1476 1478 1480 1482 1483 1485 1486 1488 1489 1491 1492 1493 1495 1496 1497 1497 1498 1499 1500 1500 1501 1501 1501 1501 1502 1502 1502 1502 1502 1502 1502 1502 1501 1501 1501
1498 1497 1496 1497 1496 1500 1495 1486 1469 1469 1469 1471 1472 1473 1475 1477 1478 1480 1482 1483 1485 1486 1487 1489 1490 1491 1492 1493 1494 1495 1495 1496 1497 1497 1498 1498 1498 1498 1498 1498 1498 1498 1498 1498 1498 1497 1497 1497 1496
1495 1494 1495 1501 1498 1493 1496 1490 1469 1468 1468 1469 1471 1472 1474 1475 1477 1478 1480 1481 1482 1484 1485 1486 1488 1489 1489 1490 1491 1492 1492 1493 1493 1494 1494 1495 1495 1495 1494 1494 1494 1494 1494 1494 1493 1493 1492 1492 1492